Current weather by "City, St" or "zip code"  
 

Current Conditions: Montrose, Montrose Regional Airport, CO

Fair


55.0 F

Last Updated on Oct 31 2020, 12:53 pm MDT
Humidity: 47%
Wind Speed: NW 4.6 mph
Barometer 30.36 in
Dewpoint: 35.1 F
Visibility: 10.00 mi
Precip: --
Heat Index: NA
Wind Chill: 54 F
Current conditions at:

Montrose, Montrose Regional Airport, CO (KMTJ)

Lat: 38.505 Lon: 107.8975

Local Radar Image active severe weather and emergency alerts image image weather storm and storm spotter reports image weather observation monitoring service image
Local
Radar
Active
Alerts
Storm Reports Obs
Monitoring

Sign-up For Email & Text Message Weather Alert Notification Services



Advertise Here

Observation History for Montrose, Montrose Regional Airport, CO


Time Wind
(mph)
Vis
(mi)
Weather Precip (in) Temperature (F) Relative
Humidity
Wind
Chill
(F)
Heat
Index
(F)
Pressure
Air Dwpt altimeter
(in)
sea level
(mb)
Rmks
12:53 pm MDT NW 4.6 10.00 Fair -- 55.0 35.1 47% 54 NA 30.36 1025.4
11:53 am MDT N 3.5 10.00 Fair -- 52.0 36.0 55% NA NA 30.37 1025.9
10:53 am MDT NW 3.5 10.00 Fair -- 48.0 33.1 56% NA NA 30.37 1026.4
9:53 am MDT N 0.0 10.00 Fair -- 42.0 30.0 62% NA NA 30.36 1026.2
8:53 am MDT S 6.9 10.00 Fair -- 35.0 27.0 72% 29 NA 30.33 1025.8
7:53 am MDT S 9.2 10.00 Fair -- 32.0 26.1 79% 24 NA 30.30 1025.0
6:53 am MDT SE 3.5 10.00 Fair -- 31.0 26.1 82% NA NA 30.29 1024.2
5:53 am MDT S 4.6 10.00 Fair -- 31.0 27.0 85% 26 NA 30.27 1022.9
4:53 am MDT SE 6.9 10.00 Fair -- 32.0 28.0 85% 26 NA 30.26 1022.0
3:53 am MDT S 8.1 10.00 Fair -- 33.0 28.0 82% 26 NA 30.26 1021.7
2:53 am MDT N 0.0 10.00 Fair -- 37.0 28.9 73% NA NA 30.25 1021.0
1:53 am MDT S 9.2 10.00 Fair -- 37.0 30.0 76% 30 NA 30.23 1020.7
12:53 am MDT S 5.8 10.00 Fair -- 36.0 30.0 79% 31 NA 30.22 1020.7
11:53 pm MDT S 4.6 10.00 Fair -- 37.0 30.0 76% 33 NA 30.23 1020.9
10:53 pm MDT SE 6.9 10.00 Fair -- 38.0 32.0 79% 33 NA 30.22 1021.1
9:53 pm MDT SE 8.1 10.00 Fair -- 40.0 33.1 77% 35 NA 30.21 1021.2
8:53 pm MDT S 9.2 10.00 Fair -- 42.0 35.1 76% 36 NA 30.21 1021.6
7:53 pm MDT S 6.9 10.00 Fair -- 43.0 36.0 76% 39 NA 30.20 1021.5
6:53 pm MDT N 0.0 10.00 Fair -- 48.0 37.9 68% NA NA 30.18 1020.4
5:53 pm MDT N 5.8 10.00 Fair -- 55.0 34.0 45% 54 NA 30.17 1019.1
4:53 pm MDT N 6.9 10.00 Fair -- 58.0 36.0 44% 57 NA 30.17 1018.8
3:53 pm MDT N 5.8 10.00 Fair -- 59.0 35.1 41% 58 NA 30.18 1018.8
2:53 pm MDT 4.6 10.00 Fair -- 56.0 34.0 44% 55 NA 30.20 1020.0
1:53 pm MDT NW 5.8 10.00 Fair -- 54.0 36.0 51% 53 NA 30.23 1020.9

Regional Weather Observation


Montrose, Montrose Regional Airport, CO (KMTJ)

Fair
55.0 F

Nucla Hopkins Field Airport, CO (KAIB)

Fair
64.0 F

Grand Junction Regional Airport, CO (KGJT)

Fair
52.0 F

Garfield County Regional Airport, CO (KRIL)

Fair
50.0 F

Sunlight, CO (K5SM)

Fair
37.0 F

Telluride, Telluride Regional Airport, CO (KTEX)

Fair
52.0 F